CAPE
128 130 137 45 104 175 134 129 529 1110 758 801 596 448 248 169 147 137 144 207 322 513 601 623 462 319 234 164 147 47 42 48 129 271 330 414 289 226 101 20 8 0 2
34 212 155 73 114 77 90 125 309 768 816 654 439 407 494 605 432 306 236 288 283 364 550 661 567 438 306 216 139 66 104 205 282 185 170 49 69 28 11 0 0 1 6
65 234 410 291 90 131 169 267 316 717 693 684 301 100 39 160 361 625 682 492 340 414 449 440 570 511 297 104 100 130 244 382 239 140 129 79 48 17 5 0 0 0 0
0 12 121 376 106 218 320 265 240 443 438 241 135 0 13 16 248 359 656 280 250 224 119 63 117 242 175 169 163 137 166 51 18 61 75 160 176 76 68 1 0 0 0
0 0 0 0 306 350 250 430 156 226 152 166 99 107 38 36 43 85 72 46 59 151 185 139 159 125 164 169 115 89 71 0 17 60 70 99 181 203 141 9 2 0 0
0 0 0 0 0 22 402 564 447 227 213 146 232 298 107 25 43 64 34 53 31 102 132 171 127 210 186 151 121 135 19 3 3 10 20 39 43 2 0 1 0 0 1
0 0 0 0 0 0 0 192 616 480 390 397 356 336 268 79 78 112 125 137 137 30 25 72 96 118 167 99 19 5 11 0 0 0 1 0 0 0 0 0 0 0 0
0 0 0 0 0 0 0 0 40 468 631 535 424 450 340 334 304 289 280 218 116 24 3 2 34 23 5 0 0 0 0 0 0 0 0 0 0 0 1 0 0 0 1
0 0 0 0 0 0 0 0 0 34 395 487 310 344 474 470 421 280 241 91 48 2 6 1 0 0 0 0 0 0 0 0 0 0 0 0 0 0 0 3 6 4 0
0 0 0 0 0 0 0 0 0 5 125 378 361 264 261 306 337 241 156 20 2 0 1 0 0 0 0 0 0 0 0 0 0 0 0 0 0 0 1 3 3 7 3
0 0 0 0 0 0 0 0 0 0 36 219 137 72 42 25 11 31 1 0 0 0 0 0 0 0 0 0 0 0 0 0 0 0 0 0 0 0 1 3 4 7 3
0 0 0 0 0 0 0 0 0 0 0 1 22 18 0 0 0 0 0 0 0 0 0 0 0 0 0 0 0 0 0 0 0 0 0 0 0 0 0 1 4 7 4
0 0 0 0 0 0 0 0 0 0 0 0 0 0 0 0 0 0 0 0 0 0 0 0 0 0 0 0 0 0 0 0 0 0 0 0 0 0 0 1 4 6 3
0 0 0 0 0 0 0 0 0 0 0 0 0 0 0 0 0 0 0 0 0 0 0 0 0 0 0 0 0 0 0 0 0 0 0 0 0 0 1 2 3 5 5
0 0 0 0 0 0 0 0 0 0 0 0 0 0 0 0 0 0 0 0 0 0 0 0 0 0 0 0 0 0 0 0 0 0 0 0 0 0 0 0 6 3 1
0 0 0 0 0 0 0 0 0 0 0 0 0 0 0 0 0 0 0 0 0 0 0 0 0 0 0 0 0 0 0 0 0 0 0 0 0 0 0 0 0 0 2
0 0 0 0 0 0 0 0 0 0 0 0 0 0 0 0 0 0 0 0 0 0 0 0 0 0 0 0 0 0 0 0 0 0 0 0 0 0 0 0 0 0 0
0 0 0 0 0 0 0 0 0 0 0 0 0 0 0 0 0 0 0 0 0 0 0 0 0 0 0 0 0 0 0 0 0 1 2 1 0 0 0 0 0 0 0
0 0 0 0 0 0 0 0 0 0 0 0 0 0 0 0 0 0 0 0 0 0 0 0 0 0 0 0 1 0 0 0 0 0 0 0 0 0 0 0 0 0 0
0 0 0 0 0 0 0 0 0 0 0 0 0 0 0 0 0 0 0 0 1 2 0 0 0 0 0 0 1 1 0 0 0 0 0 0 0 0 0 0 0 0 0
0 0 0 0 0 0 0 0 0 0 0 0 0 0 0 0 0 0 0 1 1 2 2 0 0 0 0 0 3 1 0 0 0 0 0 0 0 0 0 0 0 0 0
0 0 0 0 0 0 0 0 0 0 0 0 0 0 0 0 0 0 1 1 0 0 1 0 0 0 0 0 0 2 1 0 0 0 0 0 0 0 0 0 0 0 0
0 0 0 0 0 0 0 0 0 0 0 0 0 0 0 0 0 1 1 1 1 1 0 0 0 0 0 0 1 3 4 3 0 0 0 0 0 0 0 0 0 0 0
0 0 0 0 0 0 0 0 0 0 0 0 0 0 0 0 0 1 1 1 1 0 0 0 0 0 0 0 0 1 3 1 2 0 0 0 0 0 0 0 1 0 0
0 0 0 0 0 0 0 0 0 0 0 0 0 0 0 0 0 0 1 0 0 0 0 0 0 0 0 0 0 0 0 1 1 0 0 0 0 0 0 0 0 0 0
0 0 0 0 0 0 0 0 0 0 0 0 0 0 0 0 0 0 0 0 0 0 0 0 0 0 0 0 0 0 0 0 0 0 0 0 0 0 0 0 0 0 0
CIN
-58 -45 -4 -9 -7 -12 -23 -71 -10 -0 -2 -2 -1 -1 -25 -48 -82 -82 -74 -33 -6 -0 -0 -0 -4 -23 -40 -24 -17 -58 -39 -12 -8 -9 -1 -0 -4 -3 -15 -71 -76 -0 -90
-110 -20 -10 -13 -4 -30 -30 -52 -22 -3 -36 -14 -25 -7 -2 -0 -7 -22 -11 -7 -10 -12 -1 -0 -0 -8 -18 -17 -29 -38 -8 -3 -20 -3 -9 -32 -1 -21 -63 -0 -0 -58 -97
-112 -46 -11 -29 -39 -3 -21 -15 -5 -4 -16 -15 -27 -64 -70 -23 -2 -1 -1 -11 -26 -18 -9 -5 -0 -11 -41 -75 -58 -16 -2 -6 -13 -33 -9 -21 -29 -16 -96 -0 -0 -0 -0
-0 -91 -105 -3 -85 -71 -13 -45 -66 -5 -1 -68 -72 -12 -189 -168 -23 -22 -15 -46 -57 -64 -117 -95 -48 -25 -54 -67 -36 -20 -15 -55 -86 -43 -11 -14 -20 -35 -44 -76 -0 -0 -0
-0 -0 -0 -0 -29 -24 -69 -19 -63 -27 -86 -123 -263 -84 -76 -83 -39 -15 -49 -130 -151 -104 -96 -46 -18 -43 -34 -28 -52 -43 -36 -29 -94 -76 -17 -1 -3 -0 -16 -43 -1 -0 -0
-0 -0 -0 -0 -0 -132 -40 -38 -33 -36 -47 -15 -17 -14 -39 -48 -7 -24 -17 -142 -112 -106 -105 -46 -62 -40 -46 -52 -49 -21 -124 -86 -15 -38 -72 -41 -26 -117 -92 -0 -0 -0 -0
-0 -0 -0 -0 -0 -0 -0 -144 -39 -45 -33 -28 -19 -29 -15 -36 -44 -33 -27 -54 -47 -153 -145 -91 -72 -90 -79 -128 -170 -67 -39 -0 -0 -0 -7 -0 -0 -0 -0 -0 -0 -0 -0
-0 -0 -0 -0 -0 -0 -0 -0 -187 -53 -44 -46 -45 -36 -49 -33 -27 -16 -20 -38 -98 -178 -30 -69 -141 -260 -25 -25 -0 -0 -0 -0 -0 -0 -0 -0 -0 -0 -0 -0 -0 -0 -0
-0 -0 -0 -0 -0 -0 -0 -0 -0 -157 -72 -59 -88 -57 -52 -38 -41 -43 -51 -105 -148 -49 -324 -0 -0 -0 -0 -0 -0 -0 -0 -0 -0 -0 -0 -0 -0 -0 -0 -0 -0 -0 -0
-0 -0 -0 -0 -0 -0 -0 -0 -0 -127 -154 -98 -82 -101 -103 -83 -74 -92 -113 -118 -0 -0 -0 -0 -0 -0 -0 -0 -0 -0 -0 -0 -0 -0 -0 -0 -0 -0 -0 -0 -0 -0 -0
-0 -0 -0 -0 -0 -0 -0 -0 -0 -0 -247 -151 -191 -215 -217 -230 -75 -233 -0 -0 -0 -0 -0 -0 -0 -0 -0 -0 -0 -0 -0 -0 -0 -0 -0 -0 -0 -0 -0 -0 -0 -0 -1
-0 -0 -0 -0 -0 -0 -0 -0 -0 -0 -0 -35 -257 -247 -2 -0 -0 -0 -0 -0 -0 -0 -0 -0 -0 -0 -0 -0 -0 -0 -0 -0 -0 -0 -0 -0 -0 -0 -0 -0 -0 -0 -0
-0 -0 -0 -0 -0 -0 -0 -0 -0 -0 -0 -0 -0 -0 -0 -0 -0 -0 -0 -0 -0 -0 -0 -0 -0 -0 -0 -0 -0 -0 -0 -0 -0 -0 -0 -0 -0 -0 -0 -0 -0 -0 -0
-0 -0 -0 -0 -0 -0 -0 -0 -0 -0 -0 -0 -0 -0 -0 -0 -0 -0 -0 -0 -0 -0 -0 -0 -0 -0 -0 -0 -0 -0 -0 -0 -0 -0 -0 -0 -0 -0 -0 -0 -0 -0 -0
-0 -0 -0 -0 -0 -0 -0 -0 -0 -0 -0 -0 -0 -0 -0 -0 -0 -0 -0 -0 -0 -0 -0 -0 -0 -0 -0 -0 -0 -0 -0 -0 -0 -0 -0 -0 -0 -0 -0 -0 -0 -0 -0
-0 -0 -0 -0 -0 -0 -0 -0 -0 -0 -0 -0 -0 -0 -0 -0 -0 -0 -0 -0 -0 -0 -0 -0 -0 -0 -0 -0 -0 -0 -0 -0 -0 -0 -0 -0 -0 -0 -0 -0 -0 -0 -0
-0 -0 -0 -0 -0 -0 -0 -0 -0 -0 -0 -0 -0 -0 -0 -0 -0 -0 -0 -0 -0 -0 -0 -0 -0 -0 -0 -0 -0 -0 -0 -0 -0 -0 -0 -0 -0 -0 -0 -0 -0 -0 -0
-0 -0 -0 -0 -0 -0 -0 -0 -0 -0 -0 -0 -0 -0 -0 -0 -0 -0 -0 -0 -0 -0 -0 -0 -0 -0 -0 -0 -0 -0 -0 -0 -0 -0 -0 -0 -0 -0 -0 -0 -0 -0 -0
-0 -0 -0 -0 -0 -0 -0 -0 -0 -0 -0 -0 -0 -0 -0 -0 -0 -0 -0 -0 -0 -0 -0 -0 -0 -0 -0 -0 -0 -0 -0 -0 -0 -0 -0 -0 -0 -0 -0 -0 -0 -0 -0
-0 -0 -0 -0 -0 -0 -0 -0 -0 -0 -0 -0 -0 -0 -0 -0 -0 -0 -0 -0 -0 -0 -0 -0 -0 -0 -0 -0 -0 -0 -0 -0 -0 -0 -0 -0 -0 -0 -0 -0 -0 -0 -0
-0 -0 -0 -0 -0 -0 -0 -0 -0 -0 -0 -0 -0 -0 -0 -0 -0 -0 -0 -0 -0 -0 -0 -0 -0 -0 -0 -0 -0 -0 -0 -0 -0 -0 -0 -0 -0 -0 -0 -0 -0 -0 -0
-0 -0 -0 -0 -0 -0 -0 -0 -0 -0 -0 -0 -0 -0 -0 -0 -0 -0 -0 -0 -0 -0 -0 -0 -0 -0 -0 -0 -0 -0 -0 -0 -0 -0 -0 -0 -0 -0 -0 -0 -0 -0 -0
-0 -0 -0 -0 -0 -0 -0 -0 -0 -0 -0 -0 -0 -0 -0 -0 -0 -0 -0 -0 -0 -0 -0 -0 -0 -0 -0 -0 -0 -0 -0 -0 -0 -0 -0 -0 -0 -0 -0 -0 -0 -0 -0
-0 -0 -0 -0 -0 -0 -0 -0 -0 -0 -0 -0 -0 -0 -0 -0 -0 -0 -0 -0 -0 -0 -0 -0 -0 -0 -0 -0 -0 -0 -0 -0 -0 -0 -0 -0 -0 -0 -0 -0 -0 -0 -0
-0 -0 -0 -0 -0 -0 -0 -0 -0 -0 -0 -0 -0 -0 -0 -0 -0 -0 -0 -0 -0 -0 -0 -0 -0 -0 -0 -0 -0 -0 -0 -0 -0 -0 -0 -0 -0 -0 -0 -0 -0 -0 -0
-0 -0 -0 -0 -0 -0 -0 -0 -0 -0 -0 -0 -0 -0 -0 -0 -0 -0 -0 -0 -0 -0 -0 -0 -0 -0 -0 -0 -0 -0 -0 -0 -0 -0 -0 -0 -0 -0 -0 -0 -0 -0 -0
Wind_Speed
5 13 11 10 11 12 10 10 12 15 11 8 7 6 7 6 6 6 9 9 9 12 11 8 8 8 8 9 9 7 6 5 3 3 3 5 4 5 3 3 3 3 2
10 10 11 13 7 12 12 10 12 14 12 9 7 5 5 3 5 5 6 7 8 9 10 10 9 10 8 9 8 8 6 4 5 1 1 3 3 5 4 3 3 4 2
15 16 18 15 8 11 15 13 13 13 13 12 9 5 4 2 1 4 5 6 7 7 8 10 9 9 6 5 6 7 8 4 2 1 2 3 4 1 3 5 3 3 2
10 13 16 16 16 17 7 12 4 7 12 13 10 9 3 2 3 4 4 4 8 10 8 7 8 10 6 7 5 3 6 5 5 1 6 9 6 4 4 4 4 5 5
12 10 9 14 15 18 17 14 14 9 3 4 6 6 8 8 4 4 6 4 6 6 5 8 12 10 6 7 8 8 7 5 6 5 3 3 6 7 6 8 4 3 4
12 11 9 7 9 7 12 13 13 15 19 16 15 15 13 11 7 8 7 5 6 4 7 11 10 9 8 9 9 11 11 6 5 3 3 5 4 5 6 6 7 5 2
11 12 13 12 10 14 12 11 14 15 18 22 20 17 16 17 20 16 10 11 9 5 8 9 8 7 8 8 8 8 7 7 5 5 5 4 5 5 4 4 5 6 2
11 9 8 9 11 11 12 13 13 12 12 13 13 14 16 12 12 14 11 9 9 8 8 7 7 6 6 6 6 5 5 6 5 6 5 3 4 3 4 4 4 5 6
11 9 6 9 11 11 13 13 13 12 12 12 10 10 11 14 12 12 11 7 7 6 9 8 7 7 7 7 7 7 7 5 4 5 5 4 3 4 4 4 4 5 4
5 4 5 9 8 6 9 10 12 13 12 10 10 8 9 9 7 9 8 7 6 7 8 7 7 7 8 8 7 7 6 6 4 3 5 4 4 4 4 5 5 5 7
5 3 3 4 3 7 9 10 10 11 11 10 9 9 7 8 7 7 6 7 7 8 9 9 8 9 9 8 7 6 6 6 6 5 5 5 4 4 4 3 4 5 5
4 5 5 5 2 4 8 9 8 9 9 8 9 9 8 7 7 7 7 8 9 9 10 10 10 9 8 8 8 8 6 6 6 5 5 5 3 5 4 4 5 5 4
5 6 7 7 7 4 5 6 8 9 8 9 10 9 8 8 8 9 9 9 10 10 10 8 8 9 8 7 6 6 6 5 4 4 4 4 4 4 3 3 4 4 3
7 7 7 7 7 7 6 6 7 7 7 7 8 9 9 9 9 9 10 10 10 11 9 8 9 8 8 7 6 5 5 5 4 4 2 3 3 3 2 3 5 5 5
9 6 5 5 6 6 6 6 5 6 7 7 7 7 7 7 8 9 11 11 11 10 11 11 9 8 7 6 7 6 4 3 3 3 4 3 1 2 2 3 5 5 4
11 7 5 4 3 3 3 2 4 5 6 7 7 8 9 9 9 9 10 10 10 10 10 9 9 9 5 11 8 6 5 4 4 3 3 3 3 3 2 2 2 4 5
9 7 4 4 5 4 1 2 1 1 2 4 6 8 8 9 10 10 10 10 10 10 10 9 9 8 8 10 9 6 4 3 3 4 4 4 2 3 3 3 3 3 3
7 4 3 4 4 4 3 2 4 6 7 7 6 6 8 8 9 10 10 9 8 9 8 9 8 8 7 10 9 7 4 4 5 5 5 5 5 3 2 2 2 0 1
6 5 5 4 3 3 2 3 4 5 7 9 11 11 12 12 11 10 9 8 4 4 7 8 8 9 8 10 12 8 6 5 5 5 4 4 4 4 4 3 3 2 0
7 7 6 5 4 5 5 5 5 6 10 9 9 11 12 13 13 12 11 9 8 6 5 7 8 8 8 11 15 10 5 5 3 4 4 5 4 4 6 5 3 3 2
8 8 6 6 6 7 6 6 6 9 7 6 9 11 11 11 11 11 8 8 8 8 7 7 7 8 8 10 13 13 5 3 4 4 4 3 6 6 6 6 4 2 2
4 5 5 4 6 7 7 8 7 7 6 7 8 9 10 8 8 11 9 10 10 10 8 7 6 6 7 8 11 12 11 8 5 4 3 3 5 6 5 5 3 4 3
4 4 3 3 4 5 5 7 5 5 4 6 7 9 10 10 10 11 11 9 9 8 8 7 7 6 5 5 10 11 12 12 5 3 4 4 5 5 6 7 7 6 4
5 5 6 7 7 7 6 6 6 3 3 5 8 9 10 10 10 7 8 8 9 8 7 7 6 5 5 5 6 7 7 10 9 7 5 5 4 4 3 4 6 5 4
3 4 5 5 6 8 8 8 6 3 2 4 4 5 5 6 7 6 7 6 6 7 7 6 5 5 6 6 8 7 5 5 6 6 3 4 4 4 4 4 5 5 4
1 1 3 3 5 7 7 8 8 4 3 5 4 4 4 5 4 5 5 4 4 7 4 5 5 4 3 7 9 9 9 8 10 4 4 5 5 6 5 5 5 5 6
Wind_Direction
155 157 162 150 182 182 212 181 169 168 160 157 152 160 180 181 186 204 209 214 220 216 215 222 213 207 213 210 210 207 204 201 210 238 247 255 249 246 252 257 245 201 200
153 168 160 166 188 189 194 192 179 172 155 157 150 143 156 192 197 181 213 218 221 227 230 232 226 218 222 219 206 197 190 202 206 62 7 302 240 202 217 219 252 255 208
177 181 189 164 163 225 202 204 182 174 159 144 126 127 108 123 169 182 209 212 222 241 253 259 250 235 203 206 194 209 211 177 83 148 256 224 238 299 174 225 246 260 268
177 193 170 178 184 202 204 232 190 166 158 150 138 132 130 348 242 230 197 205 209 211 196 214 245 243 219 185 175 156 165 154 142 168 252 276 294 268 265 199 209 219 222
189 189 184 176 192 194 204 211 184 187 355 350 73 208 188 186 224 255 278 242 228 227 193 219 230 226 205 191 178 173 170 196 177 172 197 239 275 265 267 283 210 240 234
179 189 196 196 176 189 203 216 201 183 187 206 204 201 197 197 217 238 228 239 245 243 245 241 222 211 206 188 179 174 175 181 214 213 203 224 240 247 239 245 269 272 221
197 186 189 188 183 189 193 189 203 208 206 194 204 208 197 196 199 213 211 219 227 206 209 212 216 206 189 177 170 177 176 171 174 187 215 211 235 251 250 270 270 268 236
212 200 195 204 186 191 185 188 195 205 190 191 201 206 217 193 204 209 204 206 207 202 190 197 188 170 149 143 148 147 160 169 171 185 191 201 214 218 219 234 253 274 251
178 205 186 216 200 197 192 193 195 197 195 183 188 185 171 186 192 187 192 189 192 179 179 174 157 145 136 145 160 171 163 160 145 172 193 208 206 223 231 237 238 238 269
24 16 314 250 223 202 194 190 186 187 187 179 178 178 179 184 188 180 179 168 164 166 165 148 143 137 139 145 142 138 150 164 165 163 189 201 208 218 227 231 237 226 251
78 39 339 310 268 166 196 174 177 171 174 168 166 161 165 165 165 162 146 145 145 146 140 139 137 141 142 142 144 148 156 165 164 180 202 209 217 229 237 235 247 246 239
40 62 66 68 54 135 163 162 160 161 161 155 157 158 152 155 155 148 141 147 149 151 146 149 144 144 141 149 155 149 163 165 176 181 197 202 206 217 220 249 253 254 258
64 51 59 67 74 72 113 134 138 138 139 148 149 146 149 153 148 146 146 150 144 138 131 129 138 141 141 139 140 146 145 143 156 181 197 188 207 205 220 241 257 255 245
72 62 58 59 64 82 75 98 112 126 138 149 152 150 155 154 147 142 142 140 138 133 129 127 132 139 136 134 135 136 140 147 160 171 192 205 208 193 204 242 253 254 257
65 75 70 64 68 69 97 112 114 133 150 152 150 148 138 136 140 146 145 144 145 145 139 139 133 135 137 144 143 135 132 153 170 176 183 182 90 38 302 261 252 258 259
359 20 65 91 90 84 54 56 126 152 161 153 149 147 145 148 151 151 147 142 140 140 139 146 145 147 145 143 135 139 152 152 189 189 191 173 175 176 140 91 326 301 278
330 341 18 64 78 87 93 183 196 143 200 181 160 161 159 156 155 153 149 150 151 149 148 146 151 148 141 151 151 156 134 148 170 187 204 199 173 201 157 100 69 48 3
322 343 33 40 50 37 56 122 187 188 188 192 198 186 173 168 162 160 163 156 158 157 150 153 148 151 149 160 152 127 135 184 193 193 205 210 200 179 167 204 181 174 26
349 352 6 0 349 346 342 277 223 217 203 199 191 186 186 174 174 179 170 158 129 145 153 159 155 156 163 166 158 176 186 197 188 178 179 201 213 185 186 202 209 196 153
343 336 349 340 345 2 319 281 255 230 221 213 201 192 186 183 180 176 169 164 164 146 141 152 170 167 168 178 182 197 198 196 180 177 168 200 232 219 219 227 219 235 216
333 331 337 343 349 337 314 280 265 248 250 215 193 184 186 182 171 150 147 154 147 152 166 174 175 175 180 179 198 201 206 197 199 200 191 196 216 234 228 232 224 249 187
329 334 325 355 349 337 321 300 283 292 258 217 195 179 173 161 159 158 155 158 166 169 169 181 176 186 180 206 200 209 206 203 202 201 197 194 202 224 239 214 198 184 184
340 348 349 354 15 348 336 305 314 313 241 203 182 174 168 166 163 159 161 162 174 175 179 186 185 181 186 195 214 217 219 207 204 185 192 185 206 225 232 228 206 203 202
345 353 359 9 9 5 2 339 325 318 224 187 168 163 162 158 159 158 170 172 178 185 184 187 188 172 178 196 204 209 212 219 194 196 197 203 213 223 250 225 220 218 222
341 9 23 17 6 354 5 3 354 4 120 136 137 149 145 155 159 172 178 188 196 196 186 186 175 170 198 204 201 195 200 202 189 166 175 194 204 215 219 219 224 218 220
298 27 62 49 18 2 4 6 0 10 115 126 132 142 142 155 165 160 147 169 167 186 168 153 160 193 187 174 189 195 205 205 189 178 188 206 216 226 226 222 220 217 223